When you browse on this site, cookies collect data to enhance your experience and personalize the content and advertising you see.
Visit our Privacy Policy to learn more. By continuing to use the site, you agree to this use of cookies and data.
  • Em Portugal
  • Lista de países
  • Para 7 dias
  • Temperatura da água
  • Mapas de satélite
  • Mapa do tempo
  • Widgets de tempo
  • user-avatar
    Iniciar Sessão

    Previsão horária em Starosysoevka

    Hoje, 21 Fevereiro, Quinta-feira

    Tempo Temperatura Precipitação Vento Pressão Humidade
    00:00 -2°C° 0 mm 1 m/s 750 mmHg 64%
    01:00 -2°C° 0 mm 1 m/s 751 mmHg 66%
    02:00 -3°C° 0 mm 1 m/s 751 mmHg 68%
    03:00 -3°C° 0 mm 1 m/s 751 mmHg 69%
    04:00 -3°C° 0 mm 1 m/s 751 mmHg 71%
    05:00 -3°C° 0 mm 1 m/s 751 mmHg 73%
    06:00 -4°C° 0 mm 1 m/s 751 mmHg 75%
    07:00 -5°C° 0 mm 2 m/s 751 mmHg 68%
    08:00 -4°C° 0 mm 2 m/s 751 mmHg 61%
    09:00 -1°C° 0 mm 1 m/s 751 mmHg 55%
    10:00 -2°C° 0 mm 2 m/s 751 mmHg 48%
    11:00 +1°C° 0 mm 2 m/s 750 mmHg 42%
    12:00 +1°C° 0 mm 3 m/s 750 mmHg 35%
    13:00 +1°C° 0 mm 3 m/s 750 mmHg 34%
    14:00 +2°C° 0 mm 3 m/s 750 mmHg 32%
    15:00 +3°C° 0 mm 3 m/s 749 mmHg 29%
    16:00 +2°C° 0 mm 2 m/s 749 mmHg 33%
    17:00 +1°C° 0 mm 2 m/s 749 mmHg 37%
    18:00 +1°C° 0 mm 1 m/s 749 mmHg 41%
    19:00 +1°C° 0 mm 1 m/s 749 mmHg 42%
    20:00 0°C° 0 mm 1 m/s 749 mmHg 42%
    21:00 0°C° 0 mm 1 m/s 749 mmHg 43%
    22:00 0°C° 0 mm 1 m/s 749 mmHg 45%
    23:00 -3°C° 0 mm 2 m/s 749 mmHg 47%

    Amanhã, 22 Fevereiro, Sexta-feira

    Tempo Temperatura Precipitação Vento Pressão Humidade
    00:00 -3°C° 0 mm 2 m/s 749 mmHg 49%
    01:00 -3°C° 0 mm 2 m/s 749 mmHg 50%
    02:00 -3°C° 0 mm 2 m/s 749 mmHg 51%
    03:00 -4°C° 0 mm 2 m/s 749 mmHg 52%
    04:00 -4°C° 0 mm 2 m/s 749 mmHg 53%
    05:00 -4°C° 0 mm 2 m/s 749 mmHg 54%
    06:00 -5°C° 0 mm 2 m/s 749 mmHg 54%
    07:00 -4°C° 0 mm 2 m/s 749 mmHg 51%
    08:00 -3°C° 0 mm 2 m/s 749 mmHg 48%
    09:00 -2°C° 0 mm 2 m/s 749 mmHg 45%
    10:00 -1°C° 0 mm 3 m/s 749 mmHg 46%
    11:00 0°C° 0 mm 3 m/s 749 mmHg 46%
    12:00 +1°C° 0 mm 3 m/s 749 mmHg 46%
    13:00 +1°C° 0 mm 3 m/s 749 mmHg 45%
    14:00 +1°C° 0 mm 3 m/s 749 mmHg 44%
    15:00 +1°C° 0 mm 3 m/s 748 mmHg 43%
    16:00 +1°C° 0 mm 2 m/s 748 mmHg 46%
    17:00 +1°C° 0 mm 1 m/s 748 mmHg 50%
    18:00 0°C° 0 mm 1 m/s 748 mmHg 53%
    19:00 0°C° 0 mm 1 m/s 748 mmHg 53%
    20:00 0°C° 0 mm 1 m/s 749 mmHg 52%
    21:00 -1°C° 0 mm 2 m/s 749 mmHg 52%
    22:00 -2°C° 0 mm 2 m/s 749 mmHg 59%
    23:00 -3°C° 0 mm 2 m/s 749 mmHg 66%

    Depois de amanhã, 23 Fevereiro, Sábado

    Tempo Temperatura Precipitação Vento Pressão Humidade
    00:00 -3°C° 0 mm 2 m/s 750 mmHg 72%
    01:00 -4°C° 0.1 mm 3 m/s 750 mmHg 72%
    02:00 -5°C° 0.1 mm 3 m/s 750 mmHg 71%
    03:00 -5°C° 0.1 mm 3 m/s 751 mmHg 71%
    04:00 -6°C° 0 mm 3 m/s 751 mmHg 70%
    05:00 -6°C° 0 mm 3 m/s 751 mmHg 69%
    06:00 -6°C° 0 mm 2 m/s 751 mmHg 69%
    07:00 -7°C° 0 mm 3 m/s 752 mmHg 65%
    08:00 -6°C° 0 mm 3 m/s 752 mmHg 62%
    09:00 -6°C° 0 mm 3 m/s 752 mmHg 59%
    10:00 -5°C° 0 mm 3 m/s 752 mmHg 53%
    11:00 -4°C° 0 mm 4 m/s 752 mmHg 47%
    12:00 -3°C° 0 mm 4 m/s 752 mmHg 40%
    13:00 -2°C° 0 mm 3 m/s 752 mmHg 39%
    14:00 -1°C° 0 mm 3 m/s 751 mmHg 38%
    15:00 -1°C° 0 mm 3 m/s 751 mmHg 37%
    16:00 -2°C° 0 mm 2 m/s 751 mmHg 40%
    17:00 -1°C° 0 mm 1 m/s 751 mmHg 43%
    18:00 -1°C° 0 mm 1 m/s 751 mmHg 47%
    19:00 -2°C° 0 mm 1 m/s 751 mmHg 47%
    20:00 -2°C° 0 mm 1 m/s 751 mmHg 48%
    21:00 -4°C° 0 mm 2 m/s 751 mmHg 49%
    22:00 -4°C° 0 mm 2 m/s 751 mmHg 48%
    23:00 -4°C° 0 mm 2 m/s 750 mmHg 48%

    24 Fevereiro, Domingo

    Tempo Temperatura Precipitação Vento Pressão Humidade
    00:00 -4°C° 0 mm 2 m/s 750 mmHg 48%
    01:00 -4°C° 0 mm 2 m/s 750 mmHg 47%
    02:00 -4°C° 0 mm 2 m/s 749 mmHg 46%
    03:00 -4°C° 0 mm 2 m/s 749 mmHg 45%
    04:00 -5°C° 0 mm 3 m/s 748 mmHg 51%
    05:00 -5°C° 0 mm 3 m/s 748 mmHg 58%
    06:00 -4°C° 0 mm 3 m/s 747 mmHg 64%
    07:00 -3°C° 0 mm 4 m/s 747 mmHg 61%
    08:00 -2°C° 0 mm 4 m/s 747 mmHg 57%
    09:00 0°C° 0 mm 5 m/s 746 mmHg 53%
    10:00 +1°C° 0 mm 5 m/s 746 mmHg 47%
    11:00 +2°C° 0 mm 6 m/s 746 mmHg 40%
    12:00 +3°C° 0 mm 6 m/s 745 mmHg 33%
    13:00 +3°C° 0 mm 6 m/s 745 mmHg 33%
    14:00 +3°C° 0 mm 6 m/s 745 mmHg 33%
    15:00 +3°C° 0 mm 5 m/s 744 mmHg 33%
    16:00 +1°C° 0 mm 4 m/s 744 mmHg 38%
    17:00 +1°C° 0 mm 3 m/s 745 mmHg 44%
    18:00 +1°C° 0 mm 2 m/s 745 mmHg 50%
    19:00 -1°C° 0 mm 2 m/s 745 mmHg 51%
    20:00 -1°C° 0 mm 3 m/s 746 mmHg 51%
    21:00 -1°C° 0 mm 3 m/s 746 mmHg 52%
    22:00 -2°C° 0 mm 3 m/s 746 mmHg 49%
    23:00 -2°C° 0 mm 3 m/s 747 mmHg 47%

    25 Fevereiro, Segunda-feira

    Tempo Temperatura Precipitação Vento Pressão Humidade
    00:00 -4°C° 0 mm 3 m/s 747 mmHg 44%
    01:00 -3°C° 0 mm 2 m/s 747 mmHg 45%
    02:00 -4°C° 0 mm 2 m/s 747 mmHg 46%
    03:00 -4°C° 0 mm 2 m/s 747 mmHg 47%
    04:00 -4°C° 0 mm 2 m/s 747 mmHg 47%
    05:00 -5°C° 0 mm 2 m/s 747 mmHg 47%
    06:00 -5°C° 0 mm 2 m/s 747 mmHg 47%
    07:00 -5°C° 0 mm 3 m/s 747 mmHg 41%
    08:00 -4°C° 0 mm 4 m/s 748 mmHg 35%
    09:00 -4°C° 0 mm 5 m/s 748 mmHg 29%
    10:00 -2°C° 0 mm 5 m/s 748 mmHg 27%
    11:00 -2°C° 0 mm 5 m/s 748 mmHg 25%
    12:00 -1°C° 0 mm 5 m/s 748 mmHg 22%
    13:00 -1°C° 0 mm 5 m/s 748 mmHg 23%
    14:00 -1°C° 0 mm 5 m/s 748 mmHg 23%
    15:00 -1°C° 0 mm 5 m/s 747 mmHg 23%
    16:00 -2°C° 0 mm 4 m/s 748 mmHg 27%
    17:00 -2°C° 0 mm 2 m/s 748 mmHg 30%
    18:00 -1°C° 0 mm 1 m/s 749 mmHg 33%
    19:00 -1°C° 0 mm 1 m/s 749 mmHg 35%
    20:00 -1°C° 0 mm 1 m/s 750 mmHg 36%
    21:00 -2°C° 0 mm 1 m/s 750 mmHg 38%
    22:00 -2°C° 0 mm 1 m/s 750 mmHg 39%
    23:00 -2°C° 0 mm 1 m/s 750 mmHg 39%

    26 Fevereiro, Terça-feira

    Tempo Temperatura Precipitação Vento Pressão Humidade
    00:00 -2°C° 0 mm 1 m/s 750 mmHg 40%
    01:00 -3°C° 0 mm 1 m/s 750 mmHg 41%
    02:00 -5°C° 0 mm 2 m/s 750 mmHg 41%
    03:00 -5°C° 0 mm 2 m/s 750 mmHg 41%
    04:00 -5°C° 0 mm 2 m/s 750 mmHg 42%
    05:00 -4°C° 0 mm 1 m/s 750 mmHg 44%
    06:00 -4°C° 0 mm 1 m/s 750 mmHg 45%
    07:00 -3°C° 0 mm 1 m/s 751 mmHg 44%
    08:00 -2°C° 0 mm 1 m/s 751 mmHg 44%
    09:00 -1°C° 0 mm 1 m/s 751 mmHg 44%
    10:00 -2°C° 0 mm 2 m/s 751 mmHg 41%
    11:00 -1°C° 0 mm 3 m/s 752 mmHg 38%
    12:00 -1°C° 0 mm 3 m/s 752 mmHg 36%
    13:00 -2°C° 0 mm 4 m/s 752 mmHg 35%
    14:00 -2°C° 0 mm 4 m/s 752 mmHg 35%
    15:00 -2°C° 0 mm 4 m/s 752 mmHg 35%
    16:00 -2°C° 0 mm 3 m/s 753 mmHg 37%
    17:00 -4°C° 0 mm 3 m/s 753 mmHg 39%
    18:00 -4°C° 0 mm 2 m/s 753 mmHg 41%
    19:00 -2°C° 0 mm 1 m/s 754 mmHg 42%
    20:00 -2°C° 0 mm 1 m/s 754 mmHg 43%
    21:00 -3°C° 0 mm 1 m/s 754 mmHg 44%
    22:00 -3°C° 0 mm 1 m/s 754 mmHg 45%
    23:00 -3°C° 0 mm 1 m/s 755 mmHg 46%
    Mostrar mais